Location: Auttagershofen
(48.1940°N, 10.0237°E)
Time: 03:47:56
(UTC+00:00)

Cosmos 1656 Rocket - Visible Passes

Search period start: 21 April 2026 00:00
Search period end: 01 May 2026 00:00
Orbit: 795 x 843 km, 71.1° (Epoch: 20 April)

Date Brightness Start Highest point End Pass type
(mag) Time Alt. Az. Time Alt. Az. Time Alt. Az.
21 Apr 3.9 19:48:35 10° NNW 19:54:01 69° WSW 19:58:28 16° SSE visible
21 Apr 6.2 21:35:36 10° W 21:36:30 10° W 21:37:24 10° WSW visible
22 Apr 3.7 19:26:30 10° NNW 19:31:59 81° WSW 19:37:23 11° SSE visible
22 Apr 6.1 21:12:15 10° WNW 21:14:37 13° W 21:16:59 10° WSW visible
23 Apr 3.7 19:04:26 10° NNW 19:09:57 86° ENE 19:15:29 10° SSE visible
23 Apr 6.0 20:49:33 10° WNW 20:52:43 16° W 20:55:53 10° SW visible
24 Apr 5.9 20:27:04 10° WNW 20:30:47 19° W 20:34:32 10° SW visible
25 Apr 5.7 20:04:42 10° NW 20:08:52 22° WSW 20:13:03 10° SSW visible
26 Apr 5.5 19:42:24 10° NW 19:46:55 27° WSW 19:51:27 10° SSW visible
27 Apr 5.3 19:20:10 10° NW 19:24:58 31° WSW 19:29:47 10° SSW visible
28 Apr 5.1 18:57:59 10° NW 19:03:00 37° WSW 19:08:03 10° S visible
